Winchester, VA

12:35 PM EDT on June 27, 2017 (GMT -0400)
Winchester Regional

Weather History for KOKV - January, 2014

Change the Weather History Date:

Monday, January 6, 2014

  Actual Average Record
Temperature  
Mean Temperature 24 °F -  
Max Temperature 44 °F 43 °F 69 °F (1998)
Min Temperature 5 °F 27 °F 5 °F (1988)
Degree Days  
Heating Degree Days 40    
Moisture  
Dew Point 17 °F    
Average Humidity 66    
Maximum Humidity 100    
Minimum Humidity 37    
Precipitation  
Precipitation 0.26 in - - ()
Sea Level Pressure  
Sea Level Pressure 29.73 in    
Wind  
Wind Speed 13 mph (West)    
Max Wind Speed 30 mph    
Max Gust Speed 39 mph    
Visibility 8 miles    
Events Fog , Rain    
Averages and records for this station are not official NWS values.
T = Trace of Precipitation, MM = Missing Value Source: NWS Daily Summary

Daily Weather History Graph

Daily Weather History Graph

Search for Another Location

Airport or City:

Trip Planner

Search our weather history database for the weather conditions in past years. The results will help you decide how hot, cold, wet, or windy it might be!

Date:

Astronomy

Jan. 06, 2014 Rise Set
Actual Time 7:32 AM EST 5:05 PM EST
Civil Twilight 7:02 AM EST 5:34 PM EST
Nautical Twilight 6:29 AM EST 6:08 PM EST
Astronomical Twilight 5:56 AM EST 6:40 PM EST
Moon 10:49 AM EST (1/6) 11:33 PM EST (1/6)
Length of Visible Light 10h 32m
Length of Day
9h 32m
Waxing Crescent, 34% of the Moon is Illuminated
Jan 6
Waxing Crescent
Jan 7
First Quarter
Jan 15
Full
Jan 24
Last Quarter
Jan 30
New

Hourly Weather History & Observations

Time (EST) Temp. Windchill Dew Point Humidity Pressure Visibility Wind Dir Wind Speed Gust Speed Precip Events Conditions
12:15 AM 33.8 °F 28.6 °F 33.8 °F 100% 29.60 in 2.5 mi South 5.8 mph - 0.01 in   Overcast
12:35 AM 35.6 °F 29.9 °F 35.6 °F 100% 29.59 in 0.8 mi SSW 6.9 mph - 0.03 in   Overcast
12:55 AM 35.6 °F 30.7 °F 35.6 °F 100% 29.57 in 0.5 mi SSW 5.8 mph - 0.06 in Fog Fog
1:15 AM 35.6 °F 31.7 °F 35.6 °F 100% 29.56 in 0.2 mi SW 4.6 mph - 0.11 in Fog Fog
1:35 AM 35.6 °F - 35.6 °F 100% 29.55 in 0.2 mi Calm Calm - 0.12 in Fog Fog
1:55 AM 35.6 °F - 33.8 °F 93% 29.54 in 0.2 mi Calm Calm - 0.12 in Fog Fog
2:15 AM 35.6 °F 31.7 °F 35.6 °F 100% 29.52 in 2.0 mi SSW 4.6 mph - 0.01 in   Mostly Cloudy
2:35 AM 33.8 °F - 33.8 °F 100% 29.51 in 1.5 mi Calm Calm - 0.01 in   Overcast
2:55 AM 35.6 °F 31.7 °F 33.8 °F 93% 29.51 in 3.0 mi South 4.6 mph - 0.02 in   Overcast
3:15 AM 33.8 °F 30.8 °F 33.8 °F 100% 29.50 in 2.0 mi SE 3.5 mph - N/A   Overcast
3:35 AM 35.6 °F - 35.6 °F 100% 29.49 in 4.0 mi Calm Calm - N/A   Overcast
3:55 AM 35.6 °F 31.7 °F 35.6 °F 100% 29.47 in 5.0 mi SW 4.6 mph - N/A   Overcast
4:15 AM 39.2 °F 35.9 °F 37.4 °F 93% 29.46 in 10.0 mi South 4.6 mph - N/A Rain Light Rain
4:35 AM 41.0 °F 38.0 °F 41.0 °F 100% 29.46 in 7.0 mi SW 4.6 mph - 0.01 in   Drizzle
4:55 AM 41.0 °F 37.1 °F 41.0 °F 100% 29.47 in 7.0 mi West 5.8 mph - 0.01 in Rain Rain
5:15 AM 44.6 °F 36.9 °F 42.8 °F 93% 29.50 in 5.0 mi West 18.4 mph 24.2 mph 0.01 in Rain Rain
5:35 AM 44.6 °F 38.8 °F 42.8 °F 93% 29.50 in 7.0 mi West 11.5 mph - 0.05 in Rain Light Rain
5:55 AM 42.8 °F - 41.0 °F 93% 29.52 in 10.0 mi Calm Calm - 0.05 in Rain Light Rain
6:15 AM 41.0 °F - 39.2 °F 93% 29.52 in 10.0 mi Calm Calm - N/A   Overcast
6:35 AM 41.0 °F 38.0 °F 41.0 °F 100% 29.54 in 10.0 mi West 4.6 mph - N/A   Overcast
6:55 AM 42.8 °F 37.0 °F 37.4 °F 81% 29.55 in 10.0 mi West 10.4 mph - N/A   Overcast
7:15 AM 42.8 °F 34.8 °F 33.8 °F 70% 29.54 in 10.0 mi West 17.3 mph 26.5 mph N/A   Overcast
7:35 AM 42.8 °F 34.3 °F 32.0 °F 66% 29.56 in 10.0 mi WNW 19.6 mph - N/A   Overcast
7:55 AM 41.0 °F 30.7 °F 30.2 °F 65% 29.59 in 10.0 mi WNW 25.3 mph 34.5 mph N/A   Overcast
8:15 AM 37.4 °F 25.9 °F 28.4 °F 70% 29.62 in 10.0 mi WNW 25.3 mph 35.7 mph N/A   Mostly Cloudy
8:35 AM 35.6 °F 22.5 °F 26.6 °F 70% 29.63 in 10.0 mi WNW 29.9 mph 36.8 mph N/A   Overcast
8:55 AM 35.6 °F 22.7 °F 24.8 °F 65% 29.64 in 10.0 mi WNW 28.8 mph 39.1 mph N/A   Overcast
9:15 AM 33.8 °F 21.6 °F 23.0 °F 65% 29.70 in 10.0 mi WNW 23.0 mph 32.2 mph N/A   Scattered Clouds
9:35 AM 33.8 °F 22.2 °F 23.0 °F 65% 29.71 in 10.0 mi WNW 20.7 mph 26.5 mph N/A   Clear
9:55 AM 33.8 °F 22.5 °F 21.2 °F 60% 29.72 in 10.0 mi West 19.6 mph 25.3 mph N/A   Clear
10:15 AM 33.8 °F 21.6 °F 21.2 °F 60% 29.71 in 10.0 mi WNW 23.0 mph 32.2 mph N/A   Clear
10:35 AM 33.8 °F 22.8 °F 21.2 °F 60% 29.71 in 10.0 mi WNW 18.4 mph 32.2 mph N/A   Clear
10:55 AM 33.8 °F 23.2 °F 21.2 °F 60% 29.71 in 10.0 mi WNW 17.3 mph 29.9 mph N/A   Scattered Clouds
11:15 AM 32.0 °F 22.1 °F 21.2 °F 64% 29.70 in 10.0 mi WNW 13.8 mph 23.0 mph N/A   Mostly Cloudy
11:35 AM 32.0 °F 20.5 °F 21.2 °F 64% 29.70 in 10.0 mi WNW 18.4 mph 23.0 mph N/A   Overcast
11:55 AM 32.0 °F 18.9 °F 19.4 °F 60% 29.69 in 10.0 mi WNW 24.2 mph 31.1 mph N/A   Overcast
12:15 PM 32.0 °F 20.8 °F 17.6 °F 55% 29.69 in 10.0 mi West 17.3 mph 28.8 mph N/A   Mostly Cloudy
12:35 PM 33.8 °F 21.6 °F 19.4 °F 56% 29.68 in 10.0 mi WNW 23.0 mph 33.4 mph N/A   Clear
12:55 PM 33.8 °F 21.9 °F 19.4 °F 56% 29.68 in 10.0 mi WNW 21.9 mph 29.9 mph N/A   Scattered Clouds
1:15 PM 33.8 °F 22.5 °F 19.4 °F 56% 29.69 in 10.0 mi WNW 19.6 mph 28.8 mph N/A   Mostly Cloudy
1:35 PM 32.0 °F 20.5 °F 19.4 °F 60% 29.69 in 10.0 mi WNW 18.4 mph 27.6 mph N/A   Mostly Cloudy
1:55 PM 33.8 °F 22.5 °F 19.4 °F 56% 29.69 in 10.0 mi NW 19.6 mph 24.2 mph N/A   Mostly Cloudy
2:15 PM 32.0 °F 19.8 °F 19.4 °F 60% 29.69 in 10.0 mi WNW 20.7 mph 26.5 mph N/A   Mostly Cloudy
2:35 PM 32.0 °F 20.5 °F 15.8 °F 51% 29.71 in 10.0 mi WNW 18.4 mph 25.3 mph N/A   Mostly Cloudy
2:55 PM 30.2 °F 17.1 °F 14.0 °F 51% 29.72 in 10.0 mi WNW 21.9 mph 32.2 mph N/A   Overcast
3:15 PM 30.2 °F 17.1 °F 14.0 °F 51% 29.73 in 10.0 mi WNW 21.9 mph 28.8 mph N/A   Mostly Cloudy
3:35 PM 30.2 °F 18.1 °F 12.2 °F 47% 29.74 in 10.0 mi West 18.4 mph 26.5 mph N/A   Mostly Cloudy
3:55 PM 28.4 °F 16.2 °F 12.2 °F 51% 29.75 in 10.0 mi West 17.3 mph 20.7 mph N/A   Overcast
4:15 PM 28.4 °F 15.4 °F 12.2 °F 51% 29.77 in 10.0 mi WNW 19.6 mph 28.8 mph N/A   Overcast
4:35 PM 26.6 °F 11.1 °F 10.4 °F 51% 29.79 in 10.0 mi WNW 26.5 mph 33.4 mph N/A   Overcast
4:55 PM 23.0 °F 6.3 °F 6.8 °F 50% 29.80 in 10.0 mi WNW 26.5 mph 33.4 mph N/A   Mostly Cloudy
5:15 PM 21.2 °F 3.9 °F 5.0 °F 50% 29.83 in 10.0 mi WNW 26.5 mph 38.0 mph N/A   Scattered Clouds
5:35 PM 21.2 °F 4.9 °F 5.0 °F 50% 29.84 in 10.0 mi West 23.0 mph 36.8 mph N/A   Clear
5:55 PM 19.4 °F 2.8 °F -0.4 °F 42% 29.86 in 10.0 mi West 21.9 mph 35.7 mph N/A   Clear
6:15 PM 19.4 °F 2.5 °F -0.4 °F 42% 29.89 in 10.0 mi WNW 23.0 mph 32.2 mph N/A   Clear
6:35 PM 17.6 °F 1.7 °F -2.2 °F 42% 29.91 in 10.0 mi West 18.4 mph 27.6 mph N/A   Clear
6:55 PM 15.8 °F -2.3 °F -0.4 °F 49% 29.93 in 10.0 mi NW 23.0 mph 29.9 mph N/A   Scattered Clouds
7:15 PM 14.0 °F -3.9 °F -4.0 °F 45% 29.95 in 10.0 mi WNW 20.7 mph 27.6 mph N/A   Clear
7:35 PM 12.2 °F -4.8 °F -5.8 °F 45% 29.97 in 10.0 mi WNW 17.3 mph 28.8 mph N/A   Clear
7:55 PM 12.2 °F -7.5 °F -5.8 °F 45% 29.97 in 10.0 mi WNW 24.2 mph 33.4 mph N/A   Clear
8:15 PM 12.2 °F -7.1 °F -7.6 °F 41% 29.98 in 10.0 mi WNW 23.0 mph 34.5 mph N/A   Clear
8:35 PM 10.4 °F -8.6 °F -7.6 °F 44% 30.00 in 10.0 mi West 20.7 mph 29.9 mph N/A   Clear
8:55 PM 10.4 °F -10.3 °F -7.6 °F 44% 30.01 in 10.0 mi WNW 25.3 mph 32.2 mph N/A   Clear
9:15 PM 8.6 °F -13.1 °F -7.6 °F 48% 30.02 in 10.0 mi WNW 26.5 mph 34.5 mph N/A   Clear
9:35 PM 8.6 °F -11.9 °F -9.4 °F 44% 30.02 in 10.0 mi WNW 23.0 mph 28.8 mph N/A   Clear
9:55 PM 8.6 °F -10.5 °F -7.6 °F 48% 30.03 in 10.0 mi WNW 19.6 mph 29.9 mph N/A   Mostly Cloudy
10:15 PM 8.6 °F -11.0 °F -9.4 °F 44% 30.04 in 10.0 mi WNW 20.7 mph 31.1 mph N/A   Scattered Clouds
10:35 PM 6.8 °F -15.1 °F -14.8 °F 37% 30.06 in 10.0 mi WNW 25.3 mph 34.5 mph N/A   Scattered Clouds
10:55 PM 6.8 °F -13.8 °F -14.8 °F 37% 30.06 in 10.0 mi WNW 21.9 mph 35.7 mph N/A   Clear
11:15 PM 6.8 °F -11.3 °F -13.0 °F 40% 30.07 in 10.0 mi West 16.1 mph 27.6 mph N/A   Clear
11:35 PM 5.0 °F -14.7 °F -13.0 °F 43% 30.08 in 10.0 mi WNW 18.4 mph 24.2 mph N/A   Clear
11:55 PM 5.0 °F -15.2 °F -14.8 °F 40% 30.08 in 10.0 mi WNW 19.6 mph 27.6 mph N/A   Clear